Stanley, ND

4:51 PM CST on February 22, 2017 (GMT -0600)
Stanley

Weather History for K08D - October, 2012

Change the Weather History Date:

Tuesday, October 2, 2012

  Actual Average (KMIB) Record (KMIB)
Temperature  
Mean Temperature 55 °F -  
Max Temperature 66 °F 60 °F 95 °F (1997)
Min Temperature 44 °F 34 °F 17 °F (1999)
Degree Days  
Heating Degree Days 10    
Growing Degree Days 5 (Base 50)    
Moisture  
Dew Point 37 °F    
Average Humidity 51    
Maximum Humidity 76    
Minimum Humidity 35    
Precipitation  
Precipitation 0.00 in - - ()
Sea Level Pressure  
Sea Level Pressure 29.73 in    
Wind  
Wind Speed 14 mph (WNW)    
Max Wind Speed 21 mph    
Max Gust Speed 31 mph    
Visibility 10 miles    
Events      
Averages and records for this station are not official NWS values.
T = Trace of Precipitation, MM = Missing Value Source: NWS Daily Summary

Daily Weather History Graph

Daily Weather History Graph

Search for Another Location

Airport or City:

Trip Planner

Search our weather history database for the weather conditions in past years. The results will help you decide how hot, cold, wet, or windy it might be!

Date:

Astronomy

Oct. 02, 2012 Rise Set
Actual Time 7:51 AM CDT 7:25 PM CDT
Civil Twilight 7:20 AM CDT 7:56 PM CDT
Nautical Twilight 6:43 AM CDT 8:32 PM CDT
Astronomical Twilight 6:06 AM CDT 9:09 PM CDT
Moon 8:22 PM CDT (10/2) 10:36 AM CDT (10/2)
Length of Visible Light 12h 36m
Length of Day
11h 34m
Waning Gibbous, 94% of the Moon is Illuminated
Oct 2
Waning Gibbous
Oct 8
Last Quarter
Oct 15
New
Oct 21
First Quarter
Oct 29
Full

Hourly Weather History & Observations

Time (CDT) Temp. Windchill Dew Point Humidity Pressure Visibility Wind Dir Wind Speed Gust Speed Precip Events Conditions
12:15 AM 50.0 °F - 32.0 °F 50% 29.81 in 10.0 mi South 13.8 mph - N/A   Clear
12:35 AM 50.0 °F - 33.8 °F 54% 29.80 in 10.0 mi South 13.8 mph - N/A   Clear
12:55 AM 50.0 °F - 33.8 °F 54% 29.79 in 10.0 mi South 12.7 mph - N/A   Clear
1:35 AM 50.0 °F - 35.6 °F 58% 29.76 in 10.0 mi South 15.0 mph 23.0 mph N/A   Clear
1:55 AM 50.0 °F - 35.6 °F 58% 29.74 in 10.0 mi South 15.0 mph 21.9 mph N/A   Clear
2:15 AM 50.0 °F - 35.6 °F 58% 29.73 in 10.0 mi South 17.3 mph 21.9 mph N/A   Clear
2:35 AM 50.0 °F - 35.6 °F 58% 29.72 in 10.0 mi South 16.1 mph 23.0 mph N/A   Clear
2:55 AM 50.0 °F - 33.8 °F 54% 29.70 in 10.0 mi South 15.0 mph 20.7 mph N/A   Clear
3:15 AM 50.0 °F - 33.8 °F 54% 29.68 in 10.0 mi South 17.3 mph 23.0 mph N/A   Clear
3:35 AM 50.0 °F - 33.8 °F 54% 29.67 in 10.0 mi South 15.0 mph 23.0 mph N/A   Partly Cloudy
3:55 AM 50.0 °F - 33.8 °F 54% 29.65 in 10.0 mi South 13.8 mph - N/A   Partly Cloudy
4:15 AM 50.0 °F - 32.0 °F 50% 29.64 in 10.0 mi SSW 12.7 mph 19.6 mph N/A   Clear
4:35 AM 51.8 °F - 32.0 °F 47% 29.63 in 10.0 mi SSW 17.3 mph 23.0 mph N/A   Clear
4:55 AM 51.8 °F - 32.0 °F 47% 29.62 in 10.0 mi SSW 13.8 mph 19.6 mph N/A   Clear
5:35 AM 50.0 °F - 32.0 °F 50% 29.61 in 10.0 mi South 8.1 mph - N/A   Clear
5:55 AM 48.2 °F - 32.0 °F 54% 29.61 in 10.0 mi SSW 6.9 mph - N/A   Partly Cloudy
6:15 AM 48.2 °F - 32.0 °F 54% 29.62 in 10.0 mi Calm Calm - N/A   Partly Cloudy
6:35 AM 46.4 °F 44.3 °F 32.0 °F 57% 29.61 in 10.0 mi South 4.6 mph - N/A   Clear
6:55 AM 46.4 °F 45.2 °F 32.0 °F 57% 29.60 in 10.0 mi SSW 3.5 mph - N/A   Clear
7:15 AM 44.6 °F 39.2 °F 32.0 °F 61% 29.60 in 10.0 mi SW 10.4 mph - N/A   Clear
7:35 AM 50.0 °F - 32.0 °F 50% 29.60 in 10.0 mi WSW 13.8 mph - N/A   Clear
7:55 AM 50.0 °F - 32.0 °F 50% 29.61 in 10.0 mi WSW 15.0 mph - N/A   Clear
8:15 AM 53.6 °F - 33.8 °F 47% 29.61 in 10.0 mi West 16.1 mph - N/A   Clear
8:35 AM 53.6 °F - 33.8 °F 47% 29.63 in 10.0 mi West 17.3 mph 24.2 mph N/A   Clear
8:55 AM 53.6 °F - 35.6 °F 51% 29.64 in 10.0 mi West 12.7 mph - N/A   Clear
9:15 AM 55.4 °F - 37.4 °F 51% 29.65 in 10.0 mi West 13.8 mph 20.7 mph N/A   Clear
9:35 AM 55.4 °F - 39.2 °F 54% 29.66 in 10.0 mi West 15.0 mph 23.0 mph N/A   Clear
9:55 AM 57.2 °F - 41.0 °F 55% 29.66 in 10.0 mi WNW 16.1 mph 20.7 mph N/A   Clear
10:15 AM 57.2 °F - 41.0 °F 55% 29.66 in 10.0 mi WNW 13.8 mph 20.7 mph N/A   Clear
10:35 AM 59.0 °F - 41.0 °F 51% 29.68 in 10.0 mi NW 16.1 mph 21.9 mph N/A   Clear
10:55 AM 59.0 °F - 41.0 °F 51% 29.68 in 10.0 mi WNW 16.1 mph 21.9 mph N/A   Clear
11:15 AM 60.8 °F - 41.0 °F 48% 29.70 in 10.0 mi NW 18.4 mph 28.8 mph N/A   Clear
11:35 AM 60.8 °F - 39.2 °F 45% 29.70 in 10.0 mi NW 17.3 mph 25.3 mph N/A   Clear
11:55 AM 60.8 °F - 39.2 °F 45% 29.71 in 10.0 mi NW 15.0 mph 24.2 mph N/A   Clear
12:15 PM 62.6 °F - 39.2 °F 42% 29.72 in 10.0 mi NW 17.3 mph 25.3 mph N/A   Clear
12:35 PM 64.4 °F - 39.2 °F 40% 29.72 in 10.0 mi NW 16.1 mph 21.9 mph N/A   Clear
12:55 PM 64.4 °F - 39.2 °F 40% 29.72 in 10.0 mi WNW 16.1 mph 24.2 mph N/A   Clear
1:15 PM 66.2 °F - 37.4 °F 35% 29.72 in 10.0 mi WNW 16.1 mph 24.2 mph N/A   Clear
1:35 PM 64.4 °F - 37.4 °F 37% 29.72 in 10.0 mi NW 16.1 mph 27.6 mph N/A   Clear
1:55 PM 66.2 °F - 37.4 °F 35% 29.72 in 10.0 mi WNW 17.3 mph 24.2 mph N/A   Clear
2:15 PM 66.2 °F - 37.4 °F 35% 29.71 in 10.0 mi WNW 18.4 mph 27.6 mph N/A   Clear
2:35 PM 66.2 °F - 37.4 °F 35% 29.72 in 10.0 mi WNW 20.7 mph 26.5 mph N/A   Clear
2:55 PM 66.2 °F - 37.4 °F 35% 29.72 in 10.0 mi WNW 19.6 mph 29.9 mph N/A   Partly Cloudy
3:15 PM 66.2 °F - 39.2 °F 37% 29.72 in 10.0 mi NW 18.4 mph 26.5 mph N/A   Partly Cloudy
3:35 PM 66.2 °F - 39.2 °F 37% 29.73 in 10.0 mi NW 18.4 mph 31.1 mph N/A   Clear
3:55 PM 66.2 °F - 41.0 °F 40% 29.74 in 10.0 mi NW 17.3 mph 21.9 mph N/A   Partly Cloudy
4:15 PM 66.2 °F - 39.2 °F 37% 29.75 in 10.0 mi WNW 20.7 mph 27.6 mph N/A   Partly Cloudy
4:35 PM 64.4 °F - 39.2 °F 40% 29.75 in 10.0 mi WNW 16.1 mph 29.9 mph N/A   Partly Cloudy
4:55 PM 64.4 °F - 39.2 °F 40% 29.76 in 10.0 mi NW 18.4 mph 26.5 mph N/A   Scattered Clouds
5:15 PM 64.4 °F - 39.2 °F 40% 29.76 in 10.0 mi NW 16.1 mph 28.8 mph N/A   Partly Cloudy
5:35 PM 64.4 °F - 39.2 °F 40% 29.77 in 10.0 mi NW 12.7 mph 23.0 mph N/A   Partly Cloudy
5:55 PM 64.4 °F - 37.4 °F 37% 29.77 in 10.0 mi NW 13.8 mph 20.7 mph N/A   Scattered Clouds
6:15 PM 64.4 °F - 37.4 °F 37% 29.78 in 10.0 mi NW 16.1 mph 21.9 mph N/A   Scattered Clouds
6:35 PM 62.6 °F - 37.4 °F 39% 29.79 in 10.0 mi NNW 10.4 mph 20.7 mph N/A   Partly Cloudy
6:55 PM 59.0 °F - 37.4 °F 45% 29.79 in 10.0 mi NNW 9.2 mph 16.1 mph N/A   Clear
7:15 PM 57.2 °F - 37.4 °F 48% 29.80 in 10.0 mi NNW 6.9 mph - N/A   Clear
7:35 PM 53.6 °F - 37.4 °F 54% 29.81 in 10.0 mi NW 5.8 mph - N/A   Clear
7:55 PM 50.0 °F - 37.4 °F 62% 29.81 in 10.0 mi NW 8.1 mph - N/A   Clear
8:15 PM 50.0 °F - 37.4 °F 62% 29.81 in 10.0 mi NW 8.1 mph - N/A   Clear
8:35 PM 46.4 °F 42.4 °F 37.4 °F 71% 29.82 in 10.0 mi NNW 8.1 mph - N/A   Clear
8:55 PM 48.2 °F - 37.4 °F 66% 29.82 in 10.0 mi NNW 8.1 mph - N/A   Partly Cloudy
9:15 PM 50.0 °F - 39.2 °F 66% 29.83 in 10.0 mi NNW 6.9 mph - N/A   Clear
9:35 PM 46.4 °F 42.4 °F 37.4 °F 71% 29.84 in 10.0 mi NNW 8.1 mph - N/A   Clear
9:55 PM 48.2 °F - 37.4 °F 66% 29.84 in 10.0 mi NNW 11.5 mph - N/A   Clear
10:15 PM 48.2 °F - 37.4 °F 66% 29.85 in 10.0 mi NNW 13.8 mph 18.4 mph N/A   Partly Cloudy
10:35 PM 48.2 °F - 37.4 °F 66% 29.84 in 10.0 mi North 11.5 mph - N/A   Partly Cloudy
10:55 PM 46.4 °F 41.1 °F 37.4 °F 71% 29.85 in 10.0 mi NNW 11.5 mph - N/A   Clear
11:15 PM 46.4 °F 40.7 °F 37.4 °F 71% 29.87 in 10.0 mi NNW 12.7 mph - N/A   Clear
11:35 PM 46.4 °F 40.1 °F 39.2 °F 76% 29.86 in 10.0 mi North 15.0 mph - N/A   Partly Cloudy
11:55 PM 44.6 °F 38.8 °F 37.4 °F 76% 29.88 in 10.0 mi North 11.5 mph - N/A   Partly Cloudy